Location: Unspecified
(0.0000°N, 0.0000°E)
Time: 20:11:25
(UTC+00:00)

Hubble Space Telescope - Visible Passes

Search period start: 25 September 2020 00:00
Search period end: 05 October 2020 00:00
Orbit: 536 x 540 km, 28.5° (Epoch: 24 September)

Date Brightness Start Highest point End Pass type
(mag) Time Alt. Az. Time Alt. Az. Time Alt. Az.
03 Oct 3.1 18:35:06 10° SSE 18:36:08 11° SSE 18:37:10 10° SE visible
04 Oct 2.8 18:23:07 10° S 18:25:28 15° SSE 18:27:50 10° ESE visible
04 Oct 3.6 20:02:32 10° WSW 20:03:21 15° WSW 20:03:21 15° WSW visible
